Home   Weather   Yuzhno-Sakhalinsk   Past weeks

Flag for Russia Past Weather in Yuzhno-Sakhalinsk, Russia — Yesterday and Last 2 Weeks

Now
55 °F

Clear.


Feels Like: 55 °F
Forecast: 39 / 62 °F
Wind: 3 mph from South

Location: Yuzhno Airport-Sakhalinsk

Current Time: Sep 29, 2016 at 7:35:31 PM

Latest Report: Sep 29, 2016 at 7:00 PM


Visibility: N/A

Pressure: 29.83 "Hg

Humidity: 82%

Dew Point: 50 °F

Location of Yuzhno-SakhalinskLocation

Past Weather in Yuzhno-Sakhalinsk — Graph

°F

Yuzhno-Sakhalinsk Temperature Yesterday

Maximum temperature yesterday: 61 °F (at 5:30 PM)
Minimum temperature yesterday: 41 °F (at 9:30 PM)
Average temperature yesterday: 53 °F

High & Low Weather Summary for the Past Weeks

 TemperatureHumidityPressure
High70 °F (Sep 25, 2:00 PM)100% (Sep 14, 6:30 PM)30.24 "Hg (Sep 14, 6:30 PM)
Low32 °F (Sep 18, 3:00 AM)46% (Sep 21, 1:30 PM)29.65 "Hg (Sep 28, 3:00 AM)
Average54 °F88%29.98 "Hg
* Reported Sep 14 6:00 PM — Sep 29 6:00 PM, Yuzhno-Sakhalinsk, Weather by CustomWeather, © 2016

Note: Actual official high and low records may vary slightly from our data, if they occured in-between our weather recording intervals... More about our weather records

Advertising

Yuzhno-Sakhalinsk Weather History for the Previous 24 Hours

Scroll right to see more
 ConditionsComfort  
Time TempWeatherWind HumidityBarometerVisibility
6:00 PM
Thu, Sep 29
59 °FClear.10 mph72%29.83 "HgN/A
5:00 PM59 °FClear.13 mph59%29.83 "HgN/A
4:00 PM61 °FPassing clouds.13 mph52%29.86 "HgN/A
3:00 PM63 °FPassing clouds.10 mph52%29.86 "HgN/A
2:00 PM61 °FPassing clouds.10 mph55%29.86 "HgN/A
1:00 PM61 °FPassing clouds.8 mph55%29.89 "HgN/A
12:00 PM59 °FClear.1 mph55%29.92 "HgN/A
11:00 AM52 °FClear.3 mph77%29.92 "HgN/A
10:00 AM46 °FClear.1 mph87%29.92 "HgN/A
9:00 AM37 °FClear.1 mph100%29.92 "HgN/A
8:00 AM34 °FClear.No wind100%29.92 "HgN/A
7:00 AM34 °FClear.1 mph100%29.92 "HgN/A
6:00 AM34 °FClear.3 mph100%29.95 "HgN/A
5:00 AM34 °FClear.3 mph100%29.92 "HgN/A
4:00 AM34 °FClear.3 mph100%29.92 "HgN/A
3:00 AM36 °FClear.3 mph100%29.92 "HgN/A
2:00 AM34 °FClear.3 mph100%29.92 "HgN/A
1:00 AM37 °FClear.3 mph100%29.92 "HgN/A
12:00 AM41 °FClear.3 mph93%29.92 "HgN/A
11:00 PM
Wed, Sep 28
43 °FClear.3 mph93%29.92 "HgN/A
10:30 PM41 °FClear.6 mph100%29.92 "HgN/A
10:00 PM43 °FClear.6 mph100%29.92 "HgN/A
9:30 PM41 °FClear.3 mph100%29.89 "HgN/A
9:00 PM43 °FClear.1 mph100%29.89 "HgN/A
8:30 PM43 °FClear.No wind100%29.89 "HgN/A
8:00 PM46 °FPassing clouds.No wind93%29.86 "HgN/A
7:30 PM50 °FPassing clouds.3 mph82%29.86 "HgN/A
7:00 PM54 °FPassing clouds.6 mph77%29.83 "HgN/A
Weather by CustomWeather, © 2016

See weather overviewHow to use our weather pages